QPF
0.00 0.00 0.01 0.02 0.03 0.04 0.04 0.04 0.03 0.01 0.01 0.01 0.02 0.01 0.01 0.05 0.07 0.04 0.05 0.04 0.03 0.01 0.00 0.00 0.00 0.00 0.00 0.00 0.00 0.00 0.00 0.00 0.00 0.00 0.01 0.01 0.01 0.02 0.03 0.03 0.05 0.08 0.07 0.07 0.07 0.09 0.14 0.14 0.10
0.00 0.00 0.01 0.02 0.04 0.04 0.03 0.02 0.02 0.01 0.02 0.04 0.03 0.02 0.01 0.04 0.08 0.08 0.08 0.04 0.02 0.01 0.00 0.00 0.00 0.00 0.00 0.00 0.00 0.00 0.00 0.00 0.00 0.00 0.01 0.01 0.02 0.02 0.03 0.04 0.05 0.07 0.06 0.06 0.07 0.10 0.13 0.12 0.08
0.00 0.00 0.01 0.02 0.06 0.05 0.03 0.03 0.03 0.01 0.03 0.09 0.07 0.06 0.01 0.02 0.05 0.09 0.12 0.06 0.03 0.01 0.00 0.00 0.00 0.00 0.00 0.01 0.01 0.01 0.00 0.00 0.00 0.01 0.01 0.01 0.02 0.02 0.03 0.04 0.05 0.06 0.04 0.05 0.06 0.08 0.09 0.08 0.07
0.00 0.00 0.01 0.03 0.06 0.03 0.02 0.04 0.03 0.01 0.05 0.08 0.04 0.03 0.01 0.01 0.03 0.07 0.12 0.05 0.02 0.01 0.01 0.00 0.00 0.00 0.00 0.01 0.02 0.01 0.01 0.00 0.00 0.00 0.01 0.01 0.02 0.03 0.04 0.04 0.04 0.07 0.06 0.06 0.06 0.08 0.08 0.06 0.07
0.00 0.01 0.01 0.03 0.03 0.03 0.02 0.02 0.03 0.02 0.05 0.04 0.03 0.03 0.03 0.03 0.03 0.09 0.16 0.05 0.02 0.01 0.01 0.01 0.00 0.00 0.00 0.01 0.01 0.01 0.01 0.01 0.01 0.01 0.00 0.01 0.02 0.03 0.03 0.03 0.03 0.05 0.06 0.07 0.07 0.07 0.07 0.07 0.08
0.00 0.01 0.02 0.04 0.04 0.03 0.02 0.03 0.02 0.03 0.04 0.04 0.02 0.03 0.03 0.02 0.03 0.07 0.11 0.03 0.02 0.02 0.01 0.00 0.00 0.00 0.00 0.01 0.01 0.01 0.02 0.01 0.01 0.01 0.01 0.01 0.02 0.03 0.03 0.03 0.03 0.03 0.03 0.05 0.07 0.06 0.05 0.04 0.04
0.00 0.01 0.02 0.04 0.04 0.03 0.03 0.04 0.05 0.05 0.08 0.04 0.01 0.02 0.02 0.02 0.03 0.03 0.03 0.02 0.02 0.02 0.01 0.01 0.00 0.00 0.01 0.01 0.01 0.01 0.01 0.01 0.01 0.02 0.02 0.01 0.02 0.02 0.03 0.02 0.02 0.02 0.02 0.04 0.07 0.08 0.06 0.04 0.03
0.00 0.00 0.01 0.03 0.02 0.02 0.02 0.05 0.06 0.04 0.03 0.01 0.01 0.01 0.01 0.02 0.05 0.03 0.02 0.02 0.02 0.04 0.03 0.01 0.01 0.00 0.00 0.01 0.01 0.01 0.01 0.01 0.01 0.02 0.02 0.02 0.03 0.02 0.03 0.03 0.03 0.03 0.03 0.04 0.04 0.06 0.05 0.04 0.04
0.00 0.00 0.01 0.04 0.03 0.03 0.03 0.08 0.09 0.04 0.04 0.03 0.01 0.01 0.02 0.01 0.02 0.03 0.03 0.03 0.03 0.05 0.05 0.02 0.01 0.01 0.01 0.01 0.01 0.01 0.01 0.01 0.01 0.02 0.04 0.03 0.02 0.02 0.02 0.03 0.05 0.05 0.06 0.05 0.04 0.05 0.05 0.05 0.05
0.00 0.01 0.03 0.05 0.03 0.03 0.03 0.10 0.14 0.11 0.04 0.03 0.02 0.02 0.02 0.01 0.02 0.02 0.02 0.04 0.03 0.05 0.05 0.03 0.02 0.01 0.01 0.01 0.02 0.02 0.01 0.01 0.01 0.01 0.03 0.03 0.02 0.02 0.02 0.04 0.07 0.06 0.08 0.07 0.06 0.06 0.07 0.06 0.04
0.01 0.02 0.04 0.04 0.02 0.02 0.05 0.13 0.17 0.11 0.04 0.01 0.01 0.01 0.02 0.01 0.01 0.01 0.02 0.04 0.04 0.04 0.05 0.06 0.05 0.04 0.02 0.03 0.03 0.03 0.02 0.03 0.03 0.05 0.07 0.05 0.04 0.03 0.03 0.03 0.05 0.06 0.06 0.05 0.06 0.07 0.06 0.04 0.03
0.01 0.02 0.04 0.03 0.02 0.03 0.04 0.10 0.14 0.05 0.03 0.01 0.01 0.01 0.03 0.04 0.03 0.03 0.04 0.04 0.04 0.03 0.04 0.06 0.07 0.05 0.05 0.06 0.05 0.05 0.05 0.05 0.03 0.03 0.04 0.05 0.05 0.04 0.03 0.03 0.05 0.06 0.05 0.04 0.06 0.06 0.05 0.05 0.04
0.01 0.02 0.02 0.02 0.06 0.06 0.03 0.04 0.05 0.04 0.02 0.01 0.01 0.01 0.04 0.06 0.07 0.06 0.05 0.06 0.07 0.05 0.05 0.06 0.09 0.08 0.05 0.06 0.06 0.06 0.07 0.05 0.04 0.05 0.06 0.06 0.06 0.07 0.05 0.05 0.05 0.06 0.06 0.05 0.07 0.08 0.05 0.04 0.04
0.01 0.01 0.01 0.02 0.05 0.04 0.03 0.03 0.04 0.04 0.03 0.02 0.01 0.03 0.04 0.07 0.08 0.08 0.07 0.07 0.06 0.05 0.05 0.05 0.07 0.10 0.08 0.06 0.04 0.05 0.08 0.09 0.08 0.08 0.07 0.07 0.06 0.05 0.04 0.04 0.04 0.04 0.05 0.05 0.05 0.07 0.07 0.05 0.04
0.02 0.02 0.02 0.03 0.04 0.03 0.02 0.03 0.04 0.04 0.03 0.02 0.03 0.09 0.06 0.05 0.07 0.09 0.06 0.04 0.05 0.04 0.03 0.02 0.04 0.07 0.10 0.09 0.08 0.06 0.07 0.11 0.13 0.14 0.11 0.08 0.06 0.04 0.03 0.03 0.03 0.03 0.04 0.04 0.05 0.04 0.05 0.05 0.04
0.03 0.03 0.02 0.03 0.03 0.03 0.03 0.04 0.04 0.04 0.05 0.04 0.05 0.18 0.11 0.06 0.05 0.04 0.04 0.04 0.05 0.04 0.02 0.03 0.06 0.04 0.07 0.08 0.09 0.10 0.10 0.10 0.10 0.11 0.11 0.07 0.06 0.04 0.03 0.02 0.02 0.03 0.04 0.04 0.04 0.04 0.04 0.04 0.05
0.02 0.03 0.03 0.04 0.04 0.04 0.05 0.09 0.08 0.07 0.10 0.19 0.17 0.15 0.10 0.05 0.03 0.04 0.07 0.06 0.05 0.03 0.02 0.02 0.03 0.03 0.04 0.07 0.06 0.06 0.07 0.06 0.05 0.04 0.05 0.05 0.04 0.04 0.03 0.02 0.02 0.02 0.02 0.03 0.03 0.04 0.04 0.03 0.04
0.02 0.02 0.04 0.09 0.06 0.06 0.09 0.13 0.12 0.06 0.06 0.20 0.29 0.11 0.06 0.03 0.01 0.02 0.03 0.05 0.04 0.02 0.01 0.02 0.02 0.02 0.03 0.04 0.04 0.03 0.05 0.06 0.05 0.04 0.04 0.04 0.04 0.03 0.02 0.02 0.02 0.02 0.02 0.02 0.03 0.05 0.06 0.05 0.06
0.01 0.01 0.02 0.05 0.04 0.04 0.06 0.09 0.07 0.06 0.07 0.13 0.16 0.05 0.03 0.02 0.02 0.02 0.03 0.03 0.02 0.02 0.02 0.02 0.02 0.02 0.03 0.03 0.04 0.03 0.04 0.04 0.05 0.06 0.05 0.04 0.04 0.05 0.04 0.03 0.04 0.03 0.02 0.02 0.04 0.06 0.06 0.06 0.07
0.01 0.01 0.01 0.02 0.04 0.02 0.02 0.03 0.03 0.04 0.07 0.08 0.05 0.04 0.03 0.03 0.05 0.06 0.06 0.03 0.02 0.02 0.02 0.02 0.03 0.03 0.03 0.04 0.05 0.04 0.04 0.04 0.04 0.05 0.06 0.06 0.04 0.04 0.05 0.06 0.05 0.05 0.04 0.04 0.04 0.06 0.05 0.05 0.06
0.01 0.01 0.02 0.02 0.03 0.03 0.03 0.03 0.04 0.09 0.12 0.10 0.06 0.04 0.03 0.04 0.07 0.08 0.05 0.03 0.03 0.03 0.03 0.03 0.03 0.03 0.04 0.04 0.05 0.05 0.04 0.04 0.04 0.04 0.03 0.04 0.04 0.04 0.05 0.05 0.05 0.05 0.05 0.03 0.03 0.05 0.06 0.06 0.05
0.01 0.01 0.01 0.01 0.02 0.04 0.03 0.06 0.07 0.12 0.14 0.12 0.07 0.03 0.03 0.05 0.05 0.03 0.03 0.04 0.03 0.03 0.04 0.04 0.04 0.04 0.05 0.06 0.05 0.04 0.04 0.03 0.03 0.03 0.02 0.03 0.03 0.04 0.04 0.04 0.04 0.04 0.04 0.04 0.03 0.04 0.07 0.06 0.06
0.02 0.01 0.01 0.01 0.02 0.03 0.02 0.03 0.07 0.10 0.12 0.09 0.06 0.03 0.02 0.01 0.02 0.02 0.02 0.02 0.02 0.02 0.03 0.04 0.05 0.04 0.04 0.04 0.06 0.06 0.04 0.03 0.02 0.02 0.01 0.02 0.02 0.03 0.03 0.05 0.06 0.05 0.05 0.05 0.04 0.04 0.06 0.05 0.05
0.01 0.01 0.02 0.01 0.02 0.02 0.02 0.02 0.05 0.10 0.09 0.07 0.06 0.03 0.02 0.01 0.01 0.01 0.01 0.01 0.01 0.01 0.06 0.09 0.07 0.07 0.08 0.07 0.05 0.04 0.02 0.03 0.03 0.02 0.01 0.01 0.01 0.02 0.03 0.04 0.05 0.04 0.04 0.05 0.05 0.06 0.07 0.06 0.06
0.01 0.01 0.02 0.03 0.03 0.02 0.02 0.03 0.05 0.07 0.08 0.06 0.03 0.02 0.02 0.02 0.01 0.01 0.01 0.01 0.01 0.01 0.02 0.05 0.07 0.06 0.08 0.10 0.09 0.06 0.04 0.03 0.03 0.02 0.01 0.01 0.02 0.02 0.02 0.03 0.04 0.04 0.04 0.04 0.04 0.04 0.05 0.05 0.05
0.01 0.02 0.03 0.03 0.03 0.03 0.03 0.05 0.08 0.07 0.07 0.10 0.06 0.02 0.02 0.02 0.02 0.01 0.01 0.01 0.01 0.01 0.01 0.02 0.03 0.03 0.04 0.06 0.09 0.07 0.06 0.04 0.03 0.02 0.02 0.02 0.02 0.02 0.02 0.02 0.03 0.04 0.04 0.04 0.04 0.04 0.05 0.05 0.05
0.01 0.02 0.01 0.02 0.03 0.03 0.04 0.06 0.10 0.08 0.05 0.06 0.08 0.04 0.02 0.02 0.02 0.01 0.01 0.01 0.01 0.01 0.01 0.01 0.02 0.02 0.02 0.03 0.06 0.06 0.05 0.04 0.04 0.04 0.04 0.03 0.03 0.02 0.03 0.03 0.03 0.03 0.03 0.04 0.05 0.05 0.05 0.04 0.05
0.01 0.01 0.01 0.02 0.04 0.05 0.06 0.09 0.11 0.10 0.07 0.05 0.05 0.05 0.04 0.02 0.01 0.01 0.02 0.02 0.02 0.02 0.02 0.02 0.01 0.01 0.01 0.02 0.03 0.04 0.04 0.03 0.03 0.03 0.02 0.02 0.02 0.02 0.03 0.03 0.03 0.03 0.04 0.05 0.06 0.06 0.06 0.05 0.05
0.00 0.01 0.02 0.02 0.04 0.06 0.06 0.05 0.07 0.08 0.06 0.05 0.03 0.03 0.03 0.02 0.01 0.02 0.02 0.05 0.04 0.03 0.02 0.02 0.01 0.00 0.00 0.01 0.01 0.02 0.02 0.03 0.03 0.02 0.01 0.01 0.01 0.02 0.02 0.02 0.04 0.06 0.05 0.04 0.05 0.04 0.05 0.04 0.04
0.01 0.01 0.01 0.02 0.05 0.10 0.08 0.05 0.03 0.04 0.05 0.04 0.03 0.02 0.02 0.03 0.03 0.03 0.04 0.03 0.03 0.03 0.03 0.02 0.01 0.00 0.00 0.00 0.01 0.01 0.01 0.01 0.01 0.01 0.01 0.01 0.01 0.01 0.02 0.02 0.03 0.07 0.08 0.05 0.04 0.03 0.04 0.04 0.03
MSLP
1012.09 1013.36 1014.70 1015.86 1016.60 1016.76 1016.30 1015.27 1013.85 1012.27 1010.80 1009.63 1008.89 1008.61 1008.68 1008.99 1009.35 1009.62 1009.72 1009.64 1009.43 1009.21 1009.07 1009.09 1009.31 1009.72 1010.23 1010.77 1011.27 1011.67 1011.96 1012.17 1012.35 1012.53 1012.77 1013.08 1013.42 1013.78 1014.13 1014.42 1014.64 1014.81 1014.95 1015.08 1015.22 1015.37 1015.53 1015.68 1015.81
1012.64 1014.05 1015.41 1016.46 1016.98 1016.86 1016.08 1014.74 1013.06 1011.28 1009.69 1008.48 1007.74 1007.49 1007.63 1008.00 1008.44 1008.80 1008.98 1009.00 1008.90 1008.78 1008.73 1008.83 1009.11 1009.55 1010.09 1010.65 1011.18 1011.62 1011.97 1012.24 1012.48 1012.72 1012.98 1013.28 1013.61 1013.93 1014.23 1014.48 1014.67 1014.84 1014.97 1015.11 1015.26 1015.41 1015.56 1015.70 1015.80
1013.30 1014.77 1016.08 1016.97 1017.28 1016.89 1015.86 1014.31 1012.47 1010.62 1009.00 1007.81 1007.11 1006.89 1007.06 1007.44 1007.89 1008.25 1008.46 1008.51 1008.46 1008.40 1008.40 1008.55 1008.86 1009.32 1009.87 1010.45 1011.00 1011.48 1011.89 1012.23 1012.53 1012.82 1013.11 1013.41 1013.71 1013.99 1014.24 1014.44 1014.62 1014.78 1014.93 1015.09 1015.26 1015.43 1015.58 1015.71 1015.79
1013.98 1015.44 1016.62 1017.33 1017.42 1016.83 1015.64 1014.00 1012.15 1010.34 1008.81 1007.70 1007.08 1006.90 1007.05 1007.40 1007.78 1008.09 1008.25 1008.29 1008.24 1008.20 1008.23 1008.39 1008.70 1009.14 1009.67 1010.23 1010.78 1011.28 1011.73 1012.13 1012.50 1012.84 1013.16 1013.47 1013.75 1013.99 1014.20 1014.37 1014.54 1014.70 1014.88 1015.07 1015.27 1015.47 1015.63 1015.75 1015.83
1014.60 1015.94 1016.95 1017.44 1017.33 1016.60 1015.35 1013.75 1012.02 1010.38 1009.03 1008.09 1007.57 1007.43 1007.56 1007.83 1008.12 1008.32 1008.40 1008.39 1008.32 1008.27 1008.30 1008.44 1008.72 1009.11 1009.57 1010.08 1010.58 1011.07 1011.54 1011.98 1012.40 1012.80 1013.16 1013.49 1013.77 1013.99 1014.17 1014.33 1014.48 1014.65 1014.86 1015.08 1015.32 1015.55 1015.73 1015.85 1015.92
1015.05 1016.18 1016.95 1017.22 1016.93 1016.13 1014.91 1013.46 1011.95 1010.59 1009.50 1008.77 1008.39 1008.30 1008.40 1008.58 1008.75 1008.84 1008.84 1008.78 1008.69 1008.64 1008.66 1008.77 1008.99 1009.28 1009.64 1010.04 1010.46 1010.90 1011.35 1011.81 1012.28 1012.73 1013.15 1013.51 1013.80 1014.03 1014.20 1014.34 1014.49 1014.67 1014.89 1015.15 1015.42 1015.67 1015.86 1015.99 1016.06
1015.23 1016.09 1016.57 1016.60 1016.17 1015.34 1014.23 1013.00 1011.79 1010.76 1009.98 1009.49 1009.26 1009.23 1009.30 1009.40 1009.47 1009.47 1009.42 1009.34 1009.26 1009.22 1009.24 1009.33 1009.47 1009.66 1009.89 1010.14 1010.44 1010.79 1011.19 1011.65 1012.14 1012.65 1013.12 1013.54 1013.87 1014.11 1014.28 1014.42 1014.56 1014.74 1014.97 1015.24 1015.53 1015.79 1016.00 1016.14 1016.21
1015.11 1015.65 1015.83 1015.63 1015.08 1014.26 1013.29 1012.31 1011.43 1010.74 1010.28 1010.02 1009.93 1009.95 1010.00 1010.04 1010.04 1010.00 1009.94 1009.88 1009.86 1009.87 1009.92 1010.00 1010.08 1010.16 1010.23 1010.33 1010.49 1010.72 1011.05 1011.49 1012.01 1012.56 1013.10 1013.57 1013.94 1014.21 1014.39 1014.52 1014.66 1014.83 1015.05 1015.32 1015.61 1015.88 1016.11 1016.25 1016.33
1014.69 1014.92 1014.81 1014.40 1013.75 1012.97 1012.16 1011.43 1010.86 1010.48 1010.28 1010.23 1010.26 1010.31 1010.35 1010.35 1010.31 1010.26 1010.24 1010.25 1010.32 1010.42 1010.53 1010.61 1010.65 1010.63 1010.57 1010.52 1010.53 1010.66 1010.92 1011.33 1011.86 1012.45 1013.04 1013.56 1013.98 1014.28 1014.47 1014.60 1014.72 1014.87 1015.07 1015.32 1015.61 1015.89 1016.12 1016.29 1016.38
1014.07 1014.02 1013.67 1013.09 1012.37 1011.63 1010.97 1010.46 1010.14 1010.01 1010.02 1010.11 1010.21 1010.28 1010.30 1010.27 1010.22 1010.19 1010.23 1010.34 1010.52 1010.72 1010.91 1011.02 1011.04 1010.95 1010.79 1010.62 1010.51 1010.54 1010.74 1011.12 1011.66 1012.28 1012.92 1013.49 1013.95 1014.27 1014.47 1014.60 1014.69 1014.82 1014.99 1015.23 1015.51 1015.79 1016.03 1016.22 1016.35
1013.36 1013.10 1012.57 1011.87 1011.12 1010.42 1009.88 1009.54 1009.41 1009.45 1009.59 1009.76 1009.89 1009.95 1009.93 1009.87 1009.81 1009.81 1009.92 1010.12 1010.40 1010.70 1010.96 1011.12 1011.13 1011.00 1010.78 1010.54 1010.36 1010.32 1010.48 1010.85 1011.39 1012.04 1012.71 1013.31 1013.80 1014.14 1014.36 1014.48 1014.56 1014.66 1014.82 1015.03 1015.30 1015.58 1015.85 1016.07 1016.24
1012.70 1012.30 1011.66 1010.90 1010.14 1009.50 1009.05 1008.83 1008.82 1008.95 1009.15 1009.34 1009.45 1009.47 1009.40 1009.30 1009.23 1009.25 1009.39 1009.65 1010.00 1010.37 1010.68 1010.87 1010.89 1010.76 1010.52 1010.25 1010.05 1010.00 1010.14 1010.51 1011.06 1011.71 1012.40 1013.02 1013.52 1013.88 1014.11 1014.23 1014.32 1014.41 1014.56 1014.77 1015.03 1015.32 1015.61 1015.87 1016.08
1012.20 1011.73 1011.04 1010.27 1009.53 1008.94 1008.57 1008.42 1008.46 1008.63 1008.83 1008.99 1009.05 1009.01 1008.89 1008.74 1008.64 1008.64 1008.78 1009.05 1009.41 1009.79 1010.11 1010.31 1010.35 1010.24 1010.03 1009.79 1009.62 1009.59 1009.75 1010.12 1010.67 1011.32 1012.00 1012.62 1013.13 1013.50 1013.75 1013.89 1014.00 1014.11 1014.27 1014.48 1014.75 1015.06 1015.36 1015.65 1015.91
1011.91 1011.42 1010.73 1009.98 1009.29 1008.75 1008.42 1008.30 1008.36 1008.52 1008.68 1008.79 1008.80 1008.70 1008.52 1008.33 1008.18 1008.13 1008.21 1008.43 1008.73 1009.07 1009.35 1009.54 1009.60 1009.53 1009.38 1009.22 1009.12 1009.15 1009.36 1009.74 1010.28 1010.91 1011.55 1012.15 1012.65 1013.03 1013.30 1013.49 1013.64 1013.79 1013.99 1014.23 1014.52 1014.84 1015.16 1015.48 1015.76
1011.81 1011.32 1010.66 1009.95 1009.30 1008.81 1008.51 1008.41 1008.45 1008.56 1008.68 1008.74 1008.69 1008.55 1008.32 1008.08 1007.88 1007.76 1007.77 1007.88 1008.08 1008.32 1008.53 1008.69 1008.75 1008.74 1008.68 1008.62 1008.63 1008.75 1009.01 1009.41 1009.93 1010.51 1011.10 1011.65 1012.12 1012.51 1012.81 1013.06 1013.28 1013.50 1013.75 1014.04 1014.36 1014.69 1015.03 1015.35 1015.65
1011.81 1011.32 1010.69 1010.04 1009.45 1009.00 1008.72 1008.60 1008.60 1008.67 1008.73 1008.73 1008.64 1008.47 1008.23 1007.96 1007.72 1007.53 1007.43 1007.43 1007.49 1007.60 1007.73 1007.83 1007.91 1007.96 1008.01 1008.09 1008.22 1008.44 1008.76 1009.16 1009.64 1010.15 1010.66 1011.14 1011.58 1011.96 1012.30 1012.61 1012.91 1013.23 1013.55 1013.90 1014.25 1014.60 1014.94 1015.27 1015.57
1011.80 1011.32 1010.74 1010.14 1009.61 1009.20 1008.93 1008.79 1008.74 1008.73 1008.72 1008.67 1008.55 1008.36 1008.12 1007.84 1007.57 1007.33 1007.15 1007.02 1006.96 1006.95 1006.98 1007.04 1007.13 1007.26 1007.43 1007.64 1007.91 1008.23 1008.60 1009.00 1009.42 1009.84 1010.26 1010.65 1011.03 1011.40 1011.77 1012.15 1012.54 1012.94 1013.36 1013.76 1014.16 1014.53 1014.87 1015.19 1015.49
1011.69 1011.24 1010.72 1010.20 1009.74 1009.38 1009.11 1008.93 1008.80 1008.70 1008.60 1008.47 1008.31 1008.10 1007.86 1007.60 1007.33 1007.06 1006.81 1006.60 1006.43 1006.32 1006.28 1006.32 1006.44 1006.65 1006.93 1007.28 1007.68 1008.09 1008.51 1008.90 1009.25 1009.58 1009.88 1010.17 1010.48 1010.82 1011.21 1011.64 1012.11 1012.60 1013.10 1013.57 1014.00 1014.40 1014.75 1015.07 1015.37
1011.43 1011.04 1010.62 1010.22 1009.87 1009.56 1009.30 1009.06 1008.84 1008.61 1008.37 1008.13 1007.89 1007.64 1007.40 1007.15 1006.89 1006.62 1006.35 1006.09 1005.86 1005.69 1005.61 1005.65 1005.81 1006.11 1006.51 1006.99 1007.50 1008.00 1008.44 1008.82 1009.10 1009.33 1009.51 1009.70 1009.93 1010.22 1010.60 1011.07 1011.60 1012.16 1012.72 1013.24 1013.72 1014.13 1014.50 1014.83 1015.15
1011.01 1010.75 1010.50 1010.28 1010.08 1009.86 1009.60 1009.30 1008.94 1008.54 1008.12 1007.71 1007.33 1007.00 1006.72 1006.47 1006.23 1005.98 1005.72 1005.46 1005.22 1005.04 1004.96 1005.01 1005.23 1005.61 1006.12 1006.71 1007.31 1007.88 1008.36 1008.71 1008.94 1009.07 1009.15 1009.23 1009.37 1009.61 1009.96 1010.43 1010.98 1011.57 1012.17 1012.74 1013.24 1013.69 1014.08 1014.44 1014.79
1010.49 1010.44 1010.45 1010.47 1010.46 1010.36 1010.13 1009.75 1009.23 1008.61 1007.95 1007.31 1006.74 1006.27 1005.90 1005.62 1005.39 1005.17 1004.96 1004.74 1004.53 1004.38 1004.33 1004.42 1004.70 1005.15 1005.74 1006.41 1007.09 1007.72 1008.22 1008.56 1008.74 1008.79 1008.78 1008.77 1008.82 1008.99 1009.29 1009.72 1010.26 1010.85 1011.46 1012.04 1012.57 1013.04 1013.47 1013.88 1014.29
1009.96 1010.21 1010.53 1010.85 1011.08 1011.12 1010.92 1010.46 1009.76 1008.89 1007.95 1007.03 1006.21 1005.55 1005.05 1004.71 1004.48 1004.30 1004.15 1004.00 1003.86 1003.76 1003.76 1003.91 1004.23 1004.73 1005.37 1006.10 1006.83 1007.49 1008.00 1008.34 1008.49 1008.50 1008.42 1008.34 1008.31 1008.39 1008.62 1008.99 1009.47 1010.02 1010.60 1011.18 1011.72 1012.22 1012.70 1013.17 1013.66
1009.50 1010.08 1010.76 1011.41 1011.90 1012.10 1011.94 1011.40 1010.52 1009.38 1008.14 1006.91 1005.82 1004.94 1004.29 1003.87 1003.63 1003.49 1003.41 1003.34 1003.29 1003.27 1003.33 1003.52 1003.88 1004.40 1005.05 1005.79 1006.54 1007.21 1007.73 1008.07 1008.22 1008.20 1008.09 1007.95 1007.85 1007.86 1008.00 1008.28 1008.67 1009.16 1009.68 1010.22 1010.76 1011.29 1011.81 1012.36 1012.93
1009.15 1010.07 1011.10 1012.06 1012.78 1013.13 1013.01 1012.39 1011.34 1009.96 1008.44 1006.92 1005.57 1004.47 1003.68 1003.19 1002.93 1002.84 1002.84 1002.86 1002.90 1002.97 1003.09 1003.31 1003.67 1004.17 1004.81 1005.53 1006.25 1006.91 1007.43 1007.77 1007.92 1007.91 1007.79 1007.62 1007.47 1007.40 1007.45 1007.63 1007.93 1008.32 1008.77 1009.26 1009.78 1010.33 1010.90 1011.52 1012.17
1008.92 1010.12 1011.43 1012.63 1013.55 1014.00 1013.90 1013.22 1012.03 1010.45 1008.70 1006.96 1005.39 1004.13 1003.23 1002.68 1002.44 1002.40 1002.48 1002.61 1002.74 1002.88 1003.05 1003.28 1003.63 1004.09 1004.67 1005.32 1005.99 1006.61 1007.11 1007.45 1007.62 1007.62 1007.51 1007.33 1007.16 1007.04 1007.00 1007.09 1007.28 1007.57 1007.94 1008.38 1008.88 1009.42 1010.03 1010.71 1011.43
1008.78 1010.16 1011.62 1012.97 1013.98 1014.48 1014.37 1013.63 1012.34 1010.64 1008.75 1006.88 1005.20 1003.85 1002.90 1002.35 1002.14 1002.17 1002.34 1002.57 1002.79 1003.00 1003.20 1003.43 1003.73 1004.13 1004.62 1005.18 1005.77 1006.32 1006.79 1007.12 1007.30 1007.32 1007.24 1007.08 1006.89 1006.74 1006.65 1006.66 1006.76 1006.96 1007.26 1007.64 1008.10 1008.65 1009.28 1010.00 1010.77
1008.68 1010.09 1011.58 1012.92 1013.92 1014.39 1014.24 1013.47 1012.13 1010.40 1008.47 1006.57 1004.89 1003.55 1002.63 1002.12 1001.98 1002.10 1002.36 1002.68 1002.98 1003.25 1003.47 1003.69 1003.94 1004.25 1004.64 1005.09 1005.57 1006.04 1006.46 1006.77 1006.95 1007.01 1006.95 1006.82 1006.66 1006.50 1006.38 1006.34 1006.38 1006.51 1006.75 1007.08 1007.52 1008.06 1008.70 1009.43 1010.22
1008.59 1009.89 1011.25 1012.45 1013.32 1013.69 1013.48 1012.67 1011.35 1009.66 1007.81 1006.01 1004.42 1003.19 1002.37 1001.96 1001.91 1002.12 1002.47 1002.86 1003.23 1003.53 1003.77 1003.96 1004.16 1004.39 1004.67 1005.01 1005.38 1005.77 1006.12 1006.40 1006.58 1006.66 1006.64 1006.56 1006.43 1006.29 1006.17 1006.11 1006.12 1006.22 1006.42 1006.72 1007.14 1007.66 1008.29 1009.02 1009.81
1008.49 1009.55 1010.65 1011.60 1012.25 1012.46 1012.16 1011.34 1010.09 1008.53 1006.86 1005.24 1003.85 1002.80 1002.13 1001.85 1001.90 1002.18 1002.59 1003.03 1003.43 1003.75 1003.99 1004.16 1004.31 1004.47 1004.66 1004.90 1005.18 1005.48 1005.77 1006.01 1006.19 1006.30 1006.32 1006.29 1006.21 1006.11 1006.03 1005.98 1006.00 1006.09 1006.27 1006.56 1006.96 1007.46 1008.08 1008.77 1009.53
1008.38 1009.13 1009.88 1010.52 1010.90 1010.92 1010.53 1009.73 1008.59 1007.23 1005.79 1004.43 1003.29 1002.45 1001.96 1001.80 1001.93 1002.25 1002.68 1003.13 1003.53 1003.84 1004.07 1004.23 1004.34 1004.46 1004.59 1004.76 1004.97 1005.20 1005.44 1005.66 1005.83 1005.96 1006.02 1006.04 1006.02 1005.99 1005.96 1005.95 1005.99 1006.10 1006.29 1006.57 1006.95 1007.43 1008.00 1008.66 1009.36
Thickness
5811 5810 5809 5798 5777 5758 5758 5776 5794 5799 5804 5817 5821 5815 5805 5796 5786 5776 5799 5806 5803 5798 5795 5792 5790 5788 5786 5784 5782 5780 5778 5776 5774 5773 5772 5770 5768 5767 5766 5765 5764 5763 5762 5761 5760 5759 5758 5757 5756
5810 5809 5800 5784 5760 5742 5754 5780 5790 5802 5812 5822 5820 5815 5805 5799 5804 5799 5800 5802 5801 5798 5794 5791 5789 5786 5784 5782 5780 5778 5776 5774 5772 5770 5769 5767 5766 5765 5764 5763 5761 5760 5759 5758 5757 5756 5755 5754 5753
5809 5807 5786 5768 5755 5746 5761 5786 5795 5809 5820 5821 5813 5812 5805 5799 5804 5801 5803 5802 5799 5796 5793 5790 5787 5784 5782 5780 5778 5776 5773 5771 5769 5768 5767 5765 5763 5762 5761 5760 5759 5758 5757 5756 5755 5754 5753 5752 5751
5802 5791 5778 5759 5753 5767 5779 5792 5802 5806 5814 5819 5811 5801 5804 5811 5809 5807 5805 5802 5797 5793 5791 5787 5785 5782 5780 5778 5776 5774 5771 5769 5767 5765 5764 5763 5761 5760 5759 5758 5757 5756 5754 5754 5753 5751 5750 5749 5749
5796 5776 5760 5751 5758 5778 5793 5802 5806 5802 5806 5810 5808 5793 5792 5807 5812 5808 5803 5800 5795 5791 5789 5786 5783 5781 5778 5776 5774 5771 5768 5767 5765 5763 5761 5760 5758 5757 5756 5755 5754 5753 5752 5751 5750 5749 5748 5747 5746
5778 5766 5747 5742 5761 5782 5795 5805 5805 5802 5803 5807 5803 5790 5787 5802 5804 5803 5801 5797 5794 5790 5786 5783 5781 5779 5776 5774 5771 5768 5766 5764 5762 5760 5759 5757 5756 5755 5754 5753 5751 5750 5749 5748 5747 5746 5745 5745 5744
5770 5758 5749 5755 5762 5774 5792 5806 5803 5801 5800 5804 5806 5787 5786 5795 5801 5802 5800 5796 5791 5788 5784 5782 5779 5777 5774 5771 5769 5766 5764 5762 5760 5758 5756 5755 5754 5752 5751 5750 5749 5748 5747 5746 5745 5744 5743 5742 5742
5781 5762 5755 5758 5762 5770 5794 5803 5806 5803 5802 5813 5809 5788 5782 5794 5801 5799 5795 5791 5787 5783 5782 5779 5777 5774 5771 5769 5766 5764 5762 5759 5757 5755 5754 5752 5751 5749 5748 5747 5746 5745 5744 5743 5742 5741 5741 5740 5739
5787 5755 5747 5760 5767 5777 5795 5796 5802 5811 5807 5807 5807 5803 5802 5802 5800 5794 5787 5783 5781 5779 5777 5776 5773 5771 5769 5766 5764 5761 5759 5757 5755 5753 5751 5750 5748 5746 5745 5744 5744 5743 5742 5741 5740 5739 5739 5738 5737
5774 5750 5761 5780 5786 5786 5793 5795 5799 5798 5793 5793 5796 5801 5803 5799 5794 5788 5783 5778 5776 5773 5773 5772 5771 5769 5767 5765 5761 5759 5757 5755 5752 5750 5748 5747 5745 5743 5743 5742 5741 5740 5739 5738 5737 5736 5736 5735 5735
5777 5767 5779 5788 5794 5794 5793 5796 5801 5791 5782 5789 5790 5793 5795 5793 5790 5785 5782 5779 5776 5773 5771 5770 5769 5767 5765 5762 5759 5756 5754 5752 5750 5747 5745 5743 5742 5741 5739 5739 5738 5737 5736 5735 5734 5733 5733 5732 5731
5778 5782 5789 5790 5797 5796 5794 5797 5795 5794 5792 5802 5802 5799 5794 5788 5786 5783 5780 5777 5775 5772 5769 5769 5767 5765 5762 5760 5757 5754 5752 5750 5748 5745 5743 5741 5739 5737 5736 5735 5734 5733 5732 5732 5731 5730 5729 5728 5728
5777 5781 5792 5796 5797 5797 5797 5793 5792 5792 5801 5805 5801 5795 5790 5787 5784 5783 5781 5777 5773 5770 5768 5767 5766 5763 5761 5758 5756 5753 5751 5748 5746 5743 5741 5738 5736 5733 5732 5731 5730 5729 5728 5728 5727 5726 5725 5725 5724
5781 5784 5788 5792 5794 5796 5790 5788 5788 5790 5798 5796 5793 5788 5786 5784 5782 5780 5777 5773 5770 5769 5766 5766 5764 5761 5759 5756 5753 5751 5749 5746 5743 5741 5738 5735 5733 5730 5729 5727 5726 5725 5724 5724 5723 5722 5722 5721 5721
5786 5777 5779 5786 5789 5792 5788 5775 5781 5791 5793 5787 5786 5784 5783 5781 5780 5778 5776 5772 5770 5769 5767 5764 5762 5760 5756 5753 5750 5748 5745 5743 5740 5737 5735 5732 5730 5728 5726 5724 5722 5722 5721 5720 5719 5718 5717 5717 5717
5773 5764 5756 5775 5785 5789 5776 5756 5779 5789 5786 5779 5779 5779 5777 5776 5777 5777 5775 5771 5769 5767 5764 5762 5761 5757 5754 5751 5747 5744 5741 5739 5736 5733 5731 5729 5727 5725 5723 5720 5719 5718 5717 5716 5715 5714 5712 5711 5710
5752 5744 5748 5764 5783 5782 5771 5759 5778 5786 5783 5775 5774 5773 5772 5770 5771 5773 5773 5770 5767 5765 5762 5758 5757 5753 5751 5748 5744 5741 5737 5735 5733 5730 5728 5726 5724 5722 5720 5717 5715 5714 5713 5712 5711 5710 5708 5706 5706
5738 5744 5749 5755 5774 5775 5766 5762 5774 5780 5778 5772 5770 5769 5768 5767 5767 5770 5770 5768 5765 5762 5760 5757 5753 5750 5747 5744 5740 5736 5733 5731 5729 5727 5725 5723 5721 5719 5716 5714 5712 5711 5709 5707 5706 5704 5704 5702 5702
5755 5751 5748 5759 5778 5770 5763 5761 5766 5771 5770 5767 5765 5765 5764 5764 5766 5766 5765 5764 5761 5757 5755 5753 5749 5747 5744 5739 5735 5730 5727 5726 5725 5724 5722 5720 5718 5715 5712 5710 5708 5707 5704 5703 5702 5700 5698 5697 5697
5755 5747 5749 5761 5776 5770 5759 5756 5763 5766 5766 5767 5764 5762 5760 5759 5758 5759 5758 5758 5755 5752 5750 5749 5746 5743 5741 5738 5734 5730 5726 5724 5722 5720 5718 5716 5714 5711 5710 5706 5704 5703 5701 5699 5697 5696 5693 5692 5691
5755 5750 5752 5754 5767 5768 5757 5744 5751 5760 5765 5764 5763 5761 5760 5758 5754 5754 5753 5751 5749 5747 5746 5746 5742 5740 5737 5735 5731 5726 5722 5719 5716 5714 5713 5712 5711 5709 5706 5703 5701 5699 5698 5695 5694 5692 5689 5685 5685
5748 5768 5767 5760 5748 5739 5749 5721 5738 5749 5752 5754 5755 5755 5755 5755 5753 5751 5749 5747 5746 5745 5744 5741 5738 5736 5734 5731 5726 5721 5716 5712 5711 5710 5708 5708 5707 5705 5703 5701 5699 5696 5694 5692 5691 5689 5686 5682 5679
5762 5776 5768 5761 5748 5736 5739 5723 5727 5742 5739 5745 5751 5753 5753 5753 5751 5749 5747 5746 5745 5743 5740 5737 5734 5731 5730 5726 5722 5718 5713 5711 5708 5706 5704 5703 5702 5701 5700 5697 5695 5692 5690 5688 5687 5684 5681 5679 5676
5777 5767 5758 5747 5733 5716 5729 5721 5717 5731 5740 5745 5750 5752 5751 5751 5749 5747 5745 5743 5741 5739 5736 5733 5730 5727 5725 5722 5718 5714 5710 5707 5703 5701 5698 5697 5696 5696 5695 5693 5690 5688 5686 5684 5682 5680 5677 5675 5673
5766 5737 5714 5710 5702 5707 5730 5721 5720 5741 5750 5751 5750 5751 5750 5748 5745 5742 5740 5737 5735 5733 5731 5728 5725 5722 5720 5718 5714 5711 5708 5704 5700 5697 5695 5693 5691 5689 5689 5688 5686 5684 5682 5680 5678 5675 5673 5671 5669
5757 5740 5711 5698 5696 5704 5721 5714 5727 5748 5753 5753 5753 5752 5749 5745 5742 5740 5737 5734 5732 5730 5727 5724 5721 5718 5716 5713 5711 5708 5705 5701 5697 5694 5692 5689 5687 5686 5685 5684 5682 5680 5678 5676 5674 5672 5669 5668 5666
5752 5741 5740 5717 5709 5698 5703 5715 5730 5745 5744 5746 5746 5745 5742 5740 5738 5735 5734 5731 5728 5725 5722 5720 5717 5714 5711 5709 5706 5703 5701 5697 5694 5690 5688 5686 5684 5683 5681 5679 5677 5675 5674 5672 5670 5667 5665 5664 5662
5763 5751 5728 5713 5697 5689 5699 5706 5712 5728 5733 5737 5738 5737 5736 5734 5733 5730 5729 5727 5723 5720 5717 5716 5714 5710 5707 5704 5701 5699 5695 5692 5690 5686 5683 5681 5679 5679 5676 5673 5672 5670 5669 5667 5665 5663 5661 5659 5658
5749 5742 5728 5713 5708 5692 5686 5702 5735 5733 5735 5734 5735 5736 5734 5731 5729 5727 5724 5721 5718 5715 5712 5710 5708 5705 5702 5699 5696 5693 5690 5688 5685 5682 5679 5676 5675 5673 5670 5668 5666 5664 5663 5662 5660 5658 5657 5654 5653
5753 5743 5729 5710 5705 5701 5693 5704 5744 5739 5738 5736 5734 5733 5731 5729 5725 5722 5719 5715 5712 5709 5707 5705 5702 5700 5697 5695 5692 5688 5685 5682 5680 5677 5674 5672 5670 5668 5665 5663 5661 5659 5658 5657 5655 5653 5652 5650 5649